Location: Elaina
(34.1445°N, 106.7742°W)
Time: 13:02:54
(UTC+00:00)

NOSS 3-1 (C) - Pass Details

Date: 21 March 2026
Orbit: 618 x 1583 km, 63.4° (Epoch: 10 January)

Event Time Altitude Azimuth Distance (km) Brightness Sun altitude
Rises 11:27:53 0° 336° (NNW) 3,863 6.6 -21.5°
Reaches altitude 10° 11:30:32 10° 344° (NNW) 3,042 6.1 -21.0°
Maximum altitude 11:37:34 41° 54° (NE) 1,832 5.4 -19.6°
Drops below altitude 10° 11:45:57 10° 121° (ESE) 3,640 7.1 -17.9°
Sets 11:49:22 0° 128° (SE) 4,693 7.6 -17.2°
